2024-153E (60749 NORAD) Tracking and Keplerian Element Data

This shows tracking and keplerian element data for the satellite.

Feedback or suggestion? Click here.




ElementValue
Catalog60749
Name2024-153E
Epoch Orbit674
Epoch Day286.84263823
Epoch Year2024
RAAN44.1722
Inclination97.6188
Eccentricity0.0016057
Argument of Perigee138.4101
Mean Anonmoly221.8354
Mean Motion15.12218768
Decay Rate0.00030029
L11 60749U 24153E 24286.84263823 .00030029 00000+0 17311-2 0 9997
L22 60749 97.6188 44.1722 0016057 138.4101 221.8354 15.12218768 6747



Live tracking and technical data element details for 2024-153E (NORAD 60749). 2024-153E can be tracked NOW for your location showing map with azimuth and elevation plus other details from your city location.







IsCatalogInMostPopularTable: catalog: 60749, numindb: 7
Update: records affected: 1



GetName: 60749 2024-153E

Hit Count: updated at: Tue, 03 Dec 2024 01:31:35 GMT